Regional Weather Roundup
Issued by NWS

Home | Current Version | Previous Version | Graphics & Text | Print | Product List | Glossary On
Versions: 1 2 3 4 5 6 7 8 9 10 11 12 13 14 15 16 17 18 19 20 21 22 23 24 25 26 27 28 29 30 31 32 33 34 35 36 37 38 39 40 41 42 43 44 45 46 47 48 49 50
667
ASUS45 KBOU 201007
RWRCO

WEATHER ROUNDUP FOR COLORADO
NATIONAL WEATHER SERVICE DENVER/BOULDER CO
400 AM MDT WED SEP 20 2017

NOTE: "FAIR" INDICATES FEW OR NO CLOUDS BELOW 12000 FEET WITH NO
SIGNIFICANT WEATHER AND/OR OBSTRUCTIONS TO VISIBILITY.

COZ001>005-013-030-031-201100-
...NORTHWEST COLORADO...

CITY           SKY/WX    TMP DP  RH WIND       PRES   REMARKS
CRAIG          CLOUDY    40  35  83 NE5       30.02F
HAYDEN         CLOUDY    37  34  89 E9        30.06F
MEEKER         FAIR      38  36  92 N3        30.02S
RABBIT EARS PA CLOUDY    28  28 100 W9G18     30.11S WCI  20
STEAMBOAT SPGS CLOUDY    35  34  97 CALM      30.06S
WALDEN         CLOUDY    34  32  93 E5        30.06S WCI  30
$$

COZ006>008-011-201100-
...WEST CENTRAL VALLEYS...

CITY           SKY/WX    TMP DP  RH WIND       PRES   REMARKS
GRAND JUNCTION FAIR      55  36  48 CALM      29.91R
MONTROSE       FAIR      50  33  52 SE6       29.97R
EAGLE          FAIR      45  32  60 W9        30.03R
RIFLE          FAIR      49  37  63 SE6       29.97R
DELTA          FAIR      55  33  42 NE3       29.93R
NUCLA          FAIR      57  27  30 S3        30.00S
$$

COZ017>023-064>068-201100-
...SOUTHWEST COLORADO...

CITY           SKY/WX    TMP DP  RH WIND       PRES   REMARKS
DURANGO        FAIR      41  28  60 NE5       30.07R
CORTEZ         FAIR      53  26  35 CALM      30.01S
PAGOSA SPRINGS FAIR      41  24  50 CALM      30.13R
TELLURIDE      FAIR      48  24  38 CALM      30.18S
WOLF CREEK PAS FAIR      34  16  47 S23G32    30.32S WCI  22
$$

COZ009-010-012-014-032>034-037-058>063-201100-
...CENTRAL COLORADO...

CITY           SKY/WX    TMP DP  RH WIND       PRES   REMARKS
ASPEN          MOCLDY    50  33  52 N6        30.01R
BUENA VISTA    FAIR      55  24  29 E9        30.01S
COPPER MTN     FAIR      45  25  45 W14G23    30.21F
BERTHOUD PASS  FAIR      34  28  80 W31G59    30.18R WCI  20
COTTONWOOD PAS FAIR      54  21  28 W15G30    30.10R
GUNNISON       FAIR      42  26  53 CALM      30.06R
KREMMLING      MOCLDY    41  34  75 SE3       30.06R
LEADVILLE      FAIR      43  22  43 CALM      30.09S
MONARCH PASS   FAIR      37  23  56 W40G51    30.33F
SALIDA         FAIR      61  21  22 SW15G23   30.08R
SUNLIGHT       FAIR      37  28  70 SW17G25   30.18R
WILKERSON PASS FAIR      41  19  42 SW14G25   30.19S
$$

COZ069>075-201100-
...SAN LUIS VALLEY/SANGRE DE CRISTO MOUNTAINS...

CITY           SKY/WX    TMP DP  RH WIND       PRES   REMARKS
ALAMOSA        FAIR      50  22  33 S15       30.07R
DEL NORTE      FAIR      48  20  32 W6        30.09R
LA VETA PASS   FAIR      46  18  31 S23G37    30.28R
SAGUACHE       FAIR      34  27  75 N8        30.09R WCI  27
$$

COZ035-036-038>040-201100-
...NORTHERN COLORADO FRONT RANGE...

CITY           SKY/WX    TMP DP  RH WIND       PRES   REMARKS
DENVER INTL AP FAIR      42  29  59 S12       29.93R
DMNS CITY PARK   N/A     48  31  51 E9G16     29.94R
AURORA         PTCLDY    43  31  63 SE13      29.94R
FRONT RANGE AP FAIR      45  32  61 SE14      29.95R
ERIE MUNI ARPT FAIR      45  31  58 SW3       29.99R
BOULDER MUN AP FAIR      45  32  61 CALM      29.93R
CENTENNIAL     FAIR      44  31  60 S8        29.94R
BROOMFIELD     FAIR      46  32  57 S6        29.94S
FORT COLLINS   FAIR      45  34  65 SW7       29.94R
LONGMONT       FAIR      42  33  71 W5        29.96R
$$

COZ041-046-047-076>085-087-088-201100-
...PIKES PEAK/PALMER DIVIDE AND SOUTHERN FOOTHILLS...

CITY           SKY/WX    TMP DP  RH WIND       PRES   REMARKS
COLO. SPRINGS  FAIR      45  32  60 SE12      30.01R
A. F. ACADEMY  FAIR      44  29  57 SE9       29.98R
SCHRIEVER AFB  FAIR      42  30  62 MISG      30.01R
CHEYENNE MTN   NOT AVBL
ELLICOTT         N/A    N/A N/A N/A CALM      30.00R
FALCON         FAIR      38  28  67 CALM      30.03R
FORT CARSON    FAIR      45  31  59 S14       29.98R
LIMON          FAIR      45  32  60 N10G17    29.98R
MONUMENT HILL  FAIR      36  30  80 SE12      30.00R
CANON CITY     CLEAR     48  34  57 NE9       30.00R
WALSENBURG     FAIR      43  32  65 S5        30.02R
TRINIDAD       FAIR      45  35  68 NW5       30.01R
$$

COZ042>045-048>051-090-091-201100-
...NORTHEAST COLORADO...

CITY           SKY/WX    TMP DP  RH WIND       PRES   REMARKS
GREELEY ARPT   MOCLDY    47  34  60 SW7       29.94R
AKRON          FAIR      46  26  45 N3        29.92R
BURLINGTON     FAIR      41  31  67 NW9       29.92R
WRAY           FAIR      39  32  75 NW5       29.89F
YUMA           FAIR      37  32  81 W5        29.92R
STERLING       FAIR      43  32  65 W3        29.90R
HOLYOKE        NOT AVBL
FORT MORGAN    FAIR      44  30  58 CALM      29.93R
$$

COZ086-089-092>099-201100-
...SOUTHEAST COLORADO...

CITY           SKY/WX    TMP DP  RH WIND       PRES   REMARKS
PUEBLO         FAIR      42  28  57 CALM      29.99R
LA JUNTA       FAIR      50  31  48 SW6       29.95R
LAMAR          FAIR      42  30  62 SW8       29.89R
SPRINGFIELD    NOT AVBL
$$




USA.gov is the U.S. government's official web portal to all federal, state and local government web resources and services.